This demonstration page uses our WeatherBlox Daily Observations layout. Learn more.

Left ArrowRight Arrow

41.86663, -103.66717

Hourly Observations for June 8, 2020

Temp ( °F °C ) Dew Point ( °F °C ) Humidity (%) Winds ( mph kmh ) Pressure ( in mb ) Visibility ( mi km ) Precip ( " mm )
12:53 am 00:53 Clear 59 15 45 7.2 60 60 NW 20 31 29.54 1000 10 16 0.00 0.00
1:53 am 01:53 Clear 57 13.9 44 6.7 62 62 NW 14 22 29.56 1001 10 16 0.00 0.00
2:53 am 02:53 Clear 55 12.8 43 6.1 64 64 WNW 9 15 29.59 1002 10 16 0.00 0.00
3:53 am 03:53 Clear 53 11.7 44 6.7 72 72 W 9 15 29.60 1003 10 16 0.00 0.00
4:53 am 04:53 Clear 52 11.1 44 6.7 75 75 WNW 10 17 29.62 1003 10 16 0.00 0.00
5:53 am 05:53 Sunny 50 10 44 6.7 80 80 NW 6 9 29.66 1004 10 16 0.00 0.00
6:53 am 06:53 Sunny 55 12.8 43 6.1 64 64 WNW 10 17 29.67 1005 10 16 0.00 0.00
7:53 am 07:53 Sunny 60 15.6 41 5 50 50 WNW 12 19 29.67 1005 10 16 0.00 0.00
8:53 am 08:53 Sunny 65 18.3 41 5 42 42 WNW 10 17 29.68 1005 10 16 0.00 0.00
9:53 am 09:53 Sunny 69 20.6 38 3.3 32 32 NW 14 22 29.68 1005 10 16 0.00 0.00
10:53 am 10:53 Sunny 74 23.3 37 2.8 26 26 NNW 13 20 29.69 1005 10 16 0.00 0.00
11:53 am 11:53 Sunny 77 25 36 2.2 23 23 NE 10 17 29.67 1005 10 16 0.00 0.00
12:53 pm 12:53 Sunny 78 25.6 34 1.1 20 20 WNW 7 11 29.66 1004 10 16 0.00 0.00
1:53 pm 13:53 Sunny 80 26.7 35 1.7 20 20 NNW 12 19 29.64 1004 10 16 0.00 0.00
2:53 pm 14:53 Mostly Cloudy 82 27.8 38 3.3 21 21 E 9 15 29.63 1003 10 16 0.00 0.00
3:53 pm 15:53 Mostly Cloudy 79 26.1 38 3.3 23 23 NNE 6 9 29.63 1004 10 16 0.00 0.00
4:53 pm 16:53 Mostly Sunny 79 26.1 38 3.3 23 23 NE 15 24 29.63 1003 10 16 0.00 0.00
5:53 pm 17:53 Mostly Cloudy 79 26.1 36 2.2 21 21 NNE 21 33 29.61 1003 10 16 0.00 0.00
6:53 pm 18:53 Mostly Cloudy 73 22.8 33 0.6 23 23 N 18 30 29.62 1003 10 16 0.00 0.00
7:53 pm 19:53 Cloudy 65 18.3 43 6.1 45 45 NW 20 31 29.66 1005 10 16 0.00 0.00
8:53 pm 20:53 Cloudy 62 16.7 41 5 46 46 NW 20 31 29.72 1006 10 16 0.00 0.00
9:53 pm 21:53 Cloudy with Light Rain 53 11.7 45 7.2 74 74 NW 30 48 29.78 1008 10 16 0.00 0.00
10:53 pm 22:53 Cloudy 52 11.1 44 6.7 75 75 WNW 22 35 29.82 1010 10 16 0.00 0.00
11:53 pm 23:53 Cloudy 51 10.6 44 6.7 77 77 NW 29 46 29.79 1009 10 16 0.00 0.00

Powered by AerisWeather